• în România
  • Lista ţărilor
  • Pe 7 zile
  • Temperatura apei
  • Hartă satelitară
  • Meteo pe hartă
  • Widget-uri
  • user-avatar
    Intrare

    Meteo pe oră la Tucupita

    Astăzi, 23 Octombrie, Marţi

    Timp Temperatura Precipitaţii Vânt Presiune Umiditate
    00:00 +23°C° 0.1 mm 0 m/s 757 mmHg 98%
    01:00 +23°C° 0.1 mm 0 m/s 756 mmHg 98%
    02:00 +23°C° 0.1 mm 0 m/s 756 mmHg 98%
    03:00 +23°C° 0.7 mm 0 m/s 756 mmHg 98%
    04:00 +23°C° 0.7 mm 0 m/s 756 mmHg 98%
    05:00 +23°C° 0.7 mm 0 m/s 756 mmHg 98%
    06:00 +25°C° 0.5 mm 1 m/s 756 mmHg 97%
    07:00 +26°C° 0.5 mm 1 m/s 757 mmHg 95%
    08:00 +27°C° 0.5 mm 1 m/s 757 mmHg 93%
    09:00 +28°C° 1.4 mm 1 m/s 757 mmHg 91%
    10:00 +29°C° 1.4 mm 1 m/s 757 mmHg 88%
    11:00 +30°C° 1.4 mm 2 m/s 757 mmHg 85%
    12:00 +31°C° 1.2 mm 2 m/s 757 mmHg 79%
    13:00 +32°C° 1.2 mm 1 m/s 756 mmHg 73%
    14:00 +33°C° 1.2 mm 1 m/s 755 mmHg 67%
    15:00 +31°C° 1.5 mm 1 m/s 755 mmHg 75%
    16:00 +30°C° 1.5 mm 1 m/s 755 mmHg 84%
    17:00 +28°C° 1.5 mm 1 m/s 755 mmHg 92%
    18:00 +28°C° 0.3 mm 1 m/s 755 mmHg 94%
    19:00 +27°C° 0.3 mm 1 m/s 756 mmHg 95%
    20:00 +26°C° 0.3 mm 1 m/s 757 mmHg 96%
    21:00 +26°C° 0 mm 1 m/s 757 mmHg 97%
    22:00 +26°C° 0 mm 1 m/s 757 mmHg 97%
    23:00 +26°C° 0 mm 1 m/s 757 mmHg 98%

    Mâine, 24 Octombrie, Miercuri

    Timp Temperatura Precipitaţii Vânt Presiune Umiditate
    00:00 +26°C° 0.3 mm 1 m/s 757 mmHg 98%
    01:00 +26°C° 0.3 mm 1 m/s 757 mmHg 98%
    02:00 +26°C° 0.3 mm 1 m/s 756 mmHg 98%
    03:00 +26°C° 0.1 mm 1 m/s 756 mmHg 98%
    04:00 +25°C° 0.1 mm 1 m/s 756 mmHg 99%
    05:00 +25°C° 0.1 mm 1 m/s 756 mmHg 99%
    06:00 +26°C° 0 mm 1 m/s 757 mmHg 97%
    07:00 +27°C° 0 mm 1 m/s 757 mmHg 96%
    08:00 +27°C° 0 mm 1 m/s 758 mmHg 94%
    09:00 +28°C° 0.2 mm 1 m/s 758 mmHg 88%
    10:00 +30°C° 0.2 mm 2 m/s 758 mmHg 81%
    11:00 +31°C° 0.2 mm 2 m/s 758 mmHg 74%
    12:00 +31°C° 0.2 mm 2 m/s 757 mmHg 73%
    13:00 +31°C° 0.2 mm 2 m/s 756 mmHg 72%
    14:00 +32°C° 0.2 mm 2 m/s 755 mmHg 71%
    15:00 +31°C° 0.1 mm 2 m/s 755 mmHg 74%
    16:00 +30°C° 0.1 mm 2 m/s 755 mmHg 76%
    17:00 +30°C° 0.1 mm 2 m/s 755 mmHg 78%
    18:00 +29°C° 0 mm 1 m/s 755 mmHg 83%
    19:00 +28°C° 0 mm 1 m/s 756 mmHg 89%
    20:00 +27°C° 0 mm 1 m/s 757 mmHg 94%
    21:00 +26°C° 0 mm 1 m/s 757 mmHg 95%
    22:00 +26°C° 0 mm 1 m/s 757 mmHg 96%
    23:00 +26°C° 0 mm 1 m/s 757 mmHg 98%

    Poimâine, 25 Octombrie, Joi

    Timp Temperatura Precipitaţii Vânt Presiune Umiditate
    00:00 +26°C° 0 mm 1 m/s 757 mmHg 98%
    01:00 +26°C° 0 mm 1 m/s 756 mmHg 98%
    02:00 +23°C° 0 mm 0 m/s 756 mmHg 98%
    03:00 +23°C° 0 mm 0 m/s 756 mmHg 98%
    04:00 +23°C° 0 mm 0 m/s 756 mmHg 98%
    05:00 +23°C° 0 mm 0 m/s 756 mmHg 98%
    06:00 +24°C° 0 mm 0 m/s 756 mmHg 95%
    07:00 +27°C° 0 mm 1 m/s 757 mmHg 91%
    08:00 +28°C° 0 mm 1 m/s 758 mmHg 87%
    09:00 +30°C° 0 mm 1 m/s 758 mmHg 78%
    10:00 +32°C° 0 mm 2 m/s 758 mmHg 69%
    11:00 +34°C° 0 mm 2 m/s 758 mmHg 60%
    12:00 +35°C° 0 mm 2 m/s 757 mmHg 57%
    13:00 +36°C° 0 mm 2 m/s 756 mmHg 54%
    14:00 +36°C° 0 mm 2 m/s 755 mmHg 51%
    15:00 +35°C° 0.1 mm 2 m/s 755 mmHg 56%
    16:00 +34°C° 0.1 mm 2 m/s 755 mmHg 62%
    17:00 +32°C° 0.1 mm 2 m/s 754 mmHg 67%
    18:00 +31°C° 0 mm 2 m/s 755 mmHg 73%
    19:00 +29°C° 0 mm 2 m/s 756 mmHg 79%
    20:00 +28°C° 0 mm 2 m/s 756 mmHg 84%
    21:00 +27°C° 0 mm 2 m/s 756 mmHg 87%
    22:00 +27°C° 0 mm 1 m/s 757 mmHg 91%
    23:00 +26°C° 0 mm 1 m/s 757 mmHg 94%

    26 Octombrie, Vineri

    Timp Temperatura Precipitaţii Vânt Presiune Umiditate
    00:00 +26°C° 0 mm 1 m/s 756 mmHg 95%
    01:00 +26°C° 0 mm 1 m/s 756 mmHg 97%
    02:00 +25°C° 0 mm 1 m/s 756 mmHg 98%
    03:00 +25°C° 0 mm 1 m/s 756 mmHg 98%
    04:00 +25°C° 0 mm 1 m/s 756 mmHg 98%
    05:00 +23°C° 0 mm 0 m/s 756 mmHg 99%
    06:00 +26°C° 0 mm 1 m/s 757 mmHg 93%
    07:00 +28°C° 0 mm 1 m/s 757 mmHg 88%
    08:00 +29°C° 0 mm 1 m/s 758 mmHg 83%
    09:00 +30°C° 0.1 mm 2 m/s 758 mmHg 76%
    10:00 +32°C° 0.1 mm 2 m/s 758 mmHg 70%
    11:00 +34°C° 0.1 mm 2 m/s 758 mmHg 64%
    12:00 +34°C° 0.4 mm 2 m/s 757 mmHg 64%
    13:00 +34°C° 0.4 mm 2 m/s 756 mmHg 63%
    14:00 +35°C° 0.4 mm 2 m/s 755 mmHg 63%
    15:00 +34°C° 0.2 mm 2 m/s 755 mmHg 67%
    16:00 +32°C° 0.2 mm 2 m/s 755 mmHg 71%
    17:00 +31°C° 0.2 mm 2 m/s 755 mmHg 76%
    18:00 +30°C° 0 mm 2 m/s 756 mmHg 81%
    19:00 +28°C° 0 mm 2 m/s 756 mmHg 85%
    20:00 +27°C° 0 mm 2 m/s 757 mmHg 90%
    21:00 +27°C° 0 mm 1 m/s 757 mmHg 92%
    22:00 +27°C° 0 mm 1 m/s 757 mmHg 94%
    23:00 +26°C° 0 mm 1 m/s 758 mmHg 96%

    27 Octombrie, Sâmbătă

    Timp Temperatura Precipitaţii Vânt Presiune Umiditate
    00:00 +26°C° 0 mm 1 m/s 757 mmHg 97%
    01:00 +26°C° 0 mm 1 m/s 757 mmHg 98%
    02:00 +26°C° 0 mm 1 m/s 756 mmHg 98%
    03:00 +26°C° 0 mm 1 m/s 757 mmHg 99%
    04:00 +25°C° 0 mm 1 m/s 757 mmHg 99%
    05:00 +25°C° 0 mm 1 m/s 757 mmHg 99%
    06:00 +27°C° 0 mm 1 m/s 757 mmHg 94%
    07:00 +28°C° 0 mm 1 m/s 758 mmHg 89%
    08:00 +29°C° 0 mm 2 m/s 759 mmHg 84%
    09:00 +30°C° 0.2 mm 2 m/s 758 mmHg 78%
    10:00 +32°C° 0.2 mm 2 m/s 758 mmHg 72%
    11:00 +34°C° 0.2 mm 2 m/s 758 mmHg 66%
    12:00 +34°C° 0.9 mm 2 m/s 757 mmHg 69%
    13:00 +32°C° 0.9 mm 2 m/s 757 mmHg 72%
    14:00 +32°C° 0.9 mm 2 m/s 756 mmHg 75%
    15:00 +31°C° 0.5 mm 2 m/s 756 mmHg 77%
    16:00 +31°C° 0.5 mm 2 m/s 756 mmHg 79%
    17:00 +30°C° 0.5 mm 2 m/s 756 mmHg 81%
    18:00 +29°C° 0 mm 2 m/s 757 mmHg 85%
    19:00 +28°C° 0 mm 2 m/s 757 mmHg 89%
    20:00 +27°C° 0 mm 1 m/s 758 mmHg 94%
    21:00 +27°C° 0 mm 1 m/s 758 mmHg 95%
    22:00 +26°C° 0 mm 1 m/s 758 mmHg 97%
    23:00 +26°C° 0 mm 1 m/s 758 mmHg 98%

    28 Octombrie, Duminică

    Timp Temperatura Precipitaţii Vânt Presiune Umiditate
    00:00 +26°C° 0 mm 1 m/s 758 mmHg 98%
    01:00 +24°C° 0 mm 0 m/s 757 mmHg 99%
    02:00 +23°C° 0 mm 0 m/s 757 mmHg 99%
    03:00 +23°C° 0.2 mm 0 m/s 757 mmHg 99%
    04:00 +23°C° 0.2 mm 0 m/s 757 mmHg 99%
    05:00 +23°C° 0.2 mm 0 m/s 757 mmHg 98%
    06:00 +24°C° 0.2 mm 0 m/s 758 mmHg 95%
    07:00 +27°C° 0.2 mm 1 m/s 759 mmHg 92%
    08:00 +28°C° 0.2 mm 1 m/s 759 mmHg 89%
    09:00 +29°C° 0.8 mm 1 m/s 759 mmHg 87%
    10:00 +30°C° 0.8 mm 1 m/s 759 mmHg 85%
    11:00 +30°C° 0.8 mm 2 m/s 759 mmHg 84%
    12:00 +31°C° 1.2 mm 2 m/s 758 mmHg 82%
    13:00 +31°C° 1.2 mm 2 m/s 757 mmHg 80%
    14:00 +31°C° 1.2 mm 2 m/s 756 mmHg 79%
    15:00 +31°C° 0.2 mm 2 m/s 756 mmHg 78%
    16:00 +31°C° 0.2 mm 2 m/s 756 mmHg 78%
    17:00 +30°C° 0.2 mm 2 m/s 756 mmHg 77%
    18:00 +29°C° 0 mm 2 m/s 756 mmHg 83%
    19:00 +28°C° 0 mm 1 m/s 757 mmHg 88%
    20:00 +27°C° 0 mm 1 m/s 758 mmHg 93%
    21:00 +26°C° 0 mm 1 m/s 758 mmHg 95%
    22:00 +26°C° 0 mm 1 m/s 758 mmHg 96%
    23:00 +26°C° 0 mm 1 m/s 758 mmHg 98%

    29 Octombrie, Luni

    Timp Temperatura Precipitaţii Vânt Presiune Umiditate
    00:00 +26°C° 0 mm 1 m/s 757 mmHg 98%
    01:00 +24°C° 0 mm 0 m/s 757 mmHg 98%
    02:00 +23°C° 0 mm 0 m/s 757 mmHg 99%
    03:00 +23°C° 0.3 mm 0 m/s 757 mmHg 99%
    04:00 +23°C° 0.3 mm 0 m/s 757 mmHg 99%
    05:00 +23°C° 0.3 mm 0 m/s 757 mmHg 99%
    06:00 +26°C° 0.2 mm 1 m/s 757 mmHg 94%
    07:00 +27°C° 0.2 mm 1 m/s 758 mmHg 90%
    08:00 +29°C° 0.2 mm 1 m/s 758 mmHg 86%
    09:00 +30°C° 0.1 mm 1 m/s 758 mmHg 78%
    10:00 +32°C° 0.1 mm 2 m/s 758 mmHg 70%
    11:00 +34°C° 0.1 mm 2 m/s 758 mmHg 62%
    12:00 +34°C° 1.2 mm 2 m/s 757 mmHg 65%
    13:00 +34°C° 1.2 mm 2 m/s 756 mmHg 69%
    14:00 +32°C° 1.2 mm 2 m/s 755 mmHg 73%
    15:00 +32°C° 0.3 mm 2 m/s 755 mmHg 75%
    16:00 +31°C° 0.3 mm 2 m/s 755 mmHg 76%
    17:00 +30°C° 0.3 mm 2 m/s 755 mmHg 78%
    18:00 +29°C° 0 mm 2 m/s 755 mmHg 84%
    19:00 +28°C° 0 mm 1 m/s 756 mmHg 89%
    20:00 +27°C° 0 mm 1 m/s 757 mmHg 95%
    Arată mai mult